Location: Bruderhein
(53.8035°N, 112.9265°W)
Time: 09:16:05
(UTC+00:00)

Envisat - Pass Details

Date: 23 May 2024
Orbit: 762 x 764 km, 98.3° (Epoch: 13 June)

Event Time Altitude Azimuth Distance (km) Brightness Sun altitude
Rises 09:50:57 0° 23° (NNE) 3,241 8.3 -9.4°
Reaches altitude 10° 09:53:44 10° 37° (NE) 2,310 7.2 -9.2°
Maximum altitude 09:57:47 24° 91° (E) 1,567 5.1 -8.9°
Drops below altitude 10° 10:01:48 10° 143° (SE) 2,295 5.3 -8.5°
Sets 10:04:32 0° 158° (SSE) 3,216 5.9 -8.3°
